ETD441 RPLL-OMAA

Flight info

Callsign ETD441
Flight time N/A
Altitude 34000
Route SIRCA2R SIRCA L628 PCA G474 VEMKO M633 TANEK L301 RASKI N881
Aircraft B77W/H-V/N

Departure

Time 2026-05-05 22:15
Airport Ninoy Aquino International Airport (RPLL)

Arrival

Time N/A
Airport Zayed International Airport (OMAA)
Time Latitude Longitude Altitude Speed Heading
2026-05-05 21:59 14.51937 121.01224 46 ft 0 kts 45°
2026-05-05 22:00 14.51924 121.01212 44 ft 5 kts 44°
2026-05-05 22:00 14.51903 121.01191 42 ft 2 kts 61°
2026-05-05 22:00 14.51898 121.01173 43 ft 3 kts 92°
2026-05-05 22:00 14.51902 121.01149 46 ft 4 kts 110°
2026-05-05 22:01 14.51912 121.01126 45 ft 3 kts 121°
2026-05-05 22:01 14.51920 121.01113 43 ft 2 kts 126°
2026-05-05 22:01 14.51928 121.01104 44 ft 2 kts 131°
2026-05-05 22:01 14.51931 121.01099 41 ft 0 kts 133°
2026-05-05 22:03 14.51927 121.01104 47 ft 4 kts 133°
2026-05-05 22:03 14.51897 121.01136 47 ft 6 kts 135°
2026-05-05 22:03 14.51866 121.01168 46 ft 6 kts 135°
2026-05-05 22:04 14.51835 121.01200 45 ft 6 kts 135°
2026-05-05 22:04 14.51801 121.01235 45 ft 7 kts 135°
2026-05-05 22:04 14.51764 121.01273 44 ft 8 kts 135°
2026-05-05 22:04 14.51724 121.01314 43 ft 8 kts 135°
2026-05-05 22:05 14.51681 121.01358 42 ft 9 kts 135°
2026-05-05 22:05 14.51636 121.01405 42 ft 9 kts 135°
2026-05-05 22:05 14.51589 121.01453 41 ft 10 kts 135°
2026-05-05 22:05 14.51543 121.01501 40 ft 10 kts 135°
2026-05-05 22:06 14.51496 121.01550 39 ft 10 kts 134°
2026-05-05 22:06 14.51448 121.01600 38 ft 10 kts 135°
2026-05-05 22:06 14.51391 121.01659 37 ft 12 kts 135°
2026-05-05 22:06 14.51330 121.01721 37 ft 12 kts 135°
2026-05-05 22:07 14.51272 121.01781 36 ft 12 kts 135°
2026-05-05 22:07 14.51211 121.01843 36 ft 12 kts 135°
2026-05-05 22:07 14.51151 121.01905 37 ft 12 kts 135°
2026-05-05 22:07 14.51100 121.01914 37 ft 7 kts 217°
2026-05-05 22:08 14.51064 121.01875 36 ft 9 kts 234°
2026-05-05 22:08 14.51025 121.01806 33 ft 13 kts 240°
2026-05-05 22:08 14.50973 121.01713 34 ft 15 kts 240°
2026-05-05 22:08 14.50919 121.01618 40 ft 15 kts 239°
2026-05-05 22:09 14.50864 121.01522 47 ft 15 kts 239°
2026-05-05 22:09 14.50813 121.01425 48 ft 15 kts 240°
2026-05-05 22:09 14.50760 121.01330 51 ft 15 kts 240°
2026-05-05 22:09 14.50706 121.01234 51 ft 15 kts 239°
2026-05-05 22:10 14.50652 121.01138 52 ft 15 kts 239°
2026-05-05 22:10 14.50597 121.01043 54 ft 15 kts 240°
2026-05-05 22:10 14.50545 121.00947 59 ft 15 kts 240°
2026-05-05 22:10 14.50492 121.00850 58 ft 16 kts 240°
2026-05-05 22:11 14.50437 121.00751 60 ft 16 kts 240°
2026-05-05 22:11 14.50381 121.00650 63 ft 17 kts 240°
2026-05-05 22:11 14.50323 121.00546 63 ft 17 kts 239°
2026-05-05 22:11 14.50263 121.00442 71 ft 17 kts 239°
2026-05-05 22:12 14.50214 121.00355 68 ft 10 kts 237°
2026-05-05 22:12 14.50154 121.00336 82 ft 10 kts 175°
2026-05-05 22:12 14.50107 121.00308 85 ft 12 kts 211°
2026-05-05 22:12 14.50063 121.00229 86 ft 11 kts 241°
2026-05-05 22:13 14.50025 121.00161 87 ft 11 kts 240°
2026-05-05 22:13 14.49987 121.00092 90 ft 11 kts 240°
2026-05-05 22:13 14.49950 121.00024 91 ft 11 kts 240°
2026-05-05 22:13 14.49901 120.99967 92 ft 11 kts 201°
2026-05-05 22:14 14.49830 120.99990 91 ft 11 kts 150°
2026-05-05 22:14 14.49803 121.00049 91 ft 9 kts 60°
2026-05-05 22:14 14.49844 121.00121 90 ft 21 kts 59°
2026-05-05 22:14 14.49966 121.00333 84 ft 47 kts 59°
2026-05-05 22:15 14.50229 121.00809 62 ft 115 kts 60°
2026-05-05 22:15 14.50764 121.01773 49 ft 193 kts 60°
2026-05-05 22:15 14.51516 121.03121 358 ft 228 kts 61°
2026-05-05 22:15 14.52276 121.04502 1535 ft 217 kts 60°
2026-05-05 22:16 14.53031 121.05862 2319 ft 226 kts 60°
2026-05-05 22:16 14.53848 121.07331 2599 ft 245 kts 61°
2026-05-05 22:16 14.54730 121.08912 3015 ft 257 kts 61°
2026-05-05 22:16 14.55630 121.10521 3676 ft 262 kts 61°
2026-05-05 22:17 14.56621 121.12111 4222 ft 267 kts 48°
2026-05-05 22:17 14.58193 121.13185 4758 ft 278 kts 20°
2026-05-05 22:17 14.60113 121.13492 5376 ft 282 kts
2026-05-05 22:17 14.62072 121.13486 5913 ft 288 kts
2026-05-05 22:18 14.64081 121.13485 6568 ft 289 kts
2026-05-05 22:18 14.66123 121.13470 7194 ft 290 kts 356°
2026-05-05 22:18 14.68064 121.12855 7596 ft 300 kts 327°
2026-05-05 22:18 14.69513 121.11310 8129 ft 304 kts 297°
2026-05-05 22:19 14.70114 121.09230 8696 ft 304 kts 271°
2026-05-05 22:19 14.70115 121.07064 9162 ft 308 kts 268°
2026-05-05 22:19 14.70074 121.04831 9720 ft 312 kts 268°
2026-05-05 22:19 14.70041 121.02582 10284 ft 314 kts 268°
2026-05-05 22:20 14.70002 121.00277 10501 ft 329 kts 265°
2026-05-05 22:20 14.69506 120.97934 10609 ft 343 kts 248°
2026-05-05 22:20 14.68603 120.95578 10752 ft 362 kts 247°
2026-05-05 22:20 14.67652 120.93093 10906 ft 380 kts 248°
2026-05-05 22:21 14.66694 120.90517 11285 ft 390 kts 248°
2026-05-05 22:21 14.65731 120.87865 11766 ft 396 kts 249°
2026-05-05 22:21 14.64769 120.85185 12380 ft 399 kts 249°
2026-05-05 22:21 14.63805 120.82496 13015 ft 400 kts 249°
2026-05-05 22:22 14.62844 120.79821 13596 ft 403 kts 249°
2026-05-05 22:22 14.61863 120.77094 14089 ft 407 kts 249°
2026-05-05 22:22 14.60873 120.74343 14581 ft 410 kts 249°
2026-05-05 22:22 14.59876 120.71573 15096 ft 413 kts 249°
2026-05-05 22:23 14.58874 120.68790 15588 ft 415 kts 249°
2026-05-05 22:23 14.57860 120.65974 16078 ft 418 kts 249°
2026-05-05 22:23 14.56844 120.63154 16537 ft 422 kts 249°
2026-05-05 22:23 14.55816 120.60303 17034 ft 425 kts 249°
2026-05-05 22:24 14.54782 120.57436 17483 ft 428 kts 249°
2026-05-05 22:24 14.53740 120.54546 17981 ft 430 kts 249°
2026-05-05 22:24 14.52695 120.51651 18420 ft 432 kts 249°
2026-05-05 22:24 14.51640 120.48728 18820 ft 435 kts 249°
2026-05-05 22:25 14.50578 120.45789 19230 ft 436 kts 249°
2026-05-05 22:25 14.49529 120.42884 19676 ft 438 kts 249°
2026-05-05 22:25 14.48462 120.39933 20084 ft 440 kts 249°
2026-05-05 22:25 14.47391 120.36971 20483 ft 442 kts 249°
2026-05-05 22:26 14.46325 120.33987 20879 ft 444 kts 251°
2026-05-05 22:26 14.45667 120.30867 21248 ft 448 kts 263°
2026-05-05 22:26 14.45453 120.27653 21624 ft 450 kts 266°
2026-05-05 22:26 14.45308 120.24418 21996 ft 453 kts 266°
2026-05-05 22:27 14.45155 120.21164 22368 ft 455 kts 266°
2026-05-05 22:27 14.44970 120.17898 22745 ft 456 kts 265°
2026-05-05 22:27 14.44756 120.14624 23104 ft 459 kts 265°
2026-05-05 22:27 14.44522 120.11322 23450 ft 461 kts 264°
2026-05-05 22:28 14.44281 120.08022 23743 ft 463 kts 264°
2026-05-05 22:28 14.44037 120.04708 24049 ft 464 kts 264°
2026-05-05 22:28 14.43793 120.01376 24346 ft 466 kts 264°
2026-05-05 22:28 14.43553 119.98082 24641 ft 467 kts 264°
2026-05-05 22:29 14.43306 119.94687 24917 ft 470 kts 264°
2026-05-05 22:29 14.43070 119.91371 25195 ft 471 kts 265°
2026-05-05 22:29 14.42839 119.87988 25475 ft 473 kts 265°
2026-05-05 22:29 14.42608 119.84596 25751 ft 475 kts 265°
2026-05-05 22:30 14.42374 119.81199 26042 ft 476 kts 265°
2026-05-05 22:30 14.42135 119.77775 26314 ft 478 kts 265°
2026-05-05 22:30 14.41884 119.74356 26578 ft 479 kts 265°
2026-05-05 22:30 14.41624 119.70916 26812 ft 482 kts 265°
2026-05-05 22:31 14.41361 119.67462 27067 ft 483 kts 264°
2026-05-05 22:31 14.41098 119.64008 27307 ft 485 kts 265°
2026-05-05 22:31 14.40835 119.60536 27548 ft 487 kts 265°
2026-05-05 22:31 14.40572 119.57041 27772 ft 489 kts 265°
2026-05-05 22:32 14.40307 119.53537 28003 ft 491 kts 265°
2026-05-05 22:32 14.40041 119.50019 28246 ft 492 kts 265°
2026-05-05 22:32 14.39779 119.46505 28464 ft 493 kts 265°
2026-05-05 22:32 14.39518 119.42978 28707 ft 494 kts 265°
2026-05-05 22:33 14.39257 119.39424 28884 ft 496 kts 265°
2026-05-05 22:33 14.38996 119.35881 29111 ft 497 kts 265°
2026-05-05 22:33 14.38735 119.32352 29313 ft 498 kts 265°
2026-05-05 22:33 14.38469 119.28756 29644 ft 496 kts 265°
2026-05-05 22:34 14.38204 119.25199 29837 ft 498 kts 265°
2026-05-05 22:34 14.37674 119.18093 29892 ft 501 kts 265°
2026-05-05 22:35 14.37140 119.10965 29895 ft 497 kts 265°
2026-05-05 22:35 14.36696 119.05071 29899 ft 495 kts 265°
2026-05-05 22:36 14.36162 118.98000 29898 ft 494 kts 265°
2026-05-05 22:36 14.35624 118.90916 29903 ft 495 kts 265°
2026-05-05 22:37 14.35085 118.83836 29901 ft 496 kts 265°
2026-05-05 22:37 14.34542 118.76733 29900 ft 497 kts 265°
2026-05-05 22:38 14.33997 118.69627 29898 ft 497 kts 265°
2026-05-05 22:38 14.33448 118.62506 29899 ft 498 kts 265°
2026-05-05 22:39 14.32897 118.55376 29898 ft 499 kts 264°
2026-05-05 22:39 14.32346 118.48287 29898 ft 499 kts 264°
2026-05-05 22:40 14.31791 118.41152 29898 ft 500 kts 264°
2026-05-05 22:40 14.31232 118.34011 29897 ft 499 kts 264°
2026-05-05 22:41 14.30671 118.26893 29895 ft 498 kts 264°
2026-05-05 22:41 14.30106 118.19773 29897 ft 497 kts 264°
2026-05-05 22:42 14.29541 118.12665 29896 ft 497 kts 264°
2026-05-05 22:42 14.28974 118.05567 29910 ft 495 kts 265°
2026-05-05 22:43 14.28409 117.98507 29896 ft 494 kts 265°
2026-05-05 22:43 14.27842 117.91445 29897 ft 493 kts 265°
2026-05-05 22:44 14.27273 117.84397 29896 ft 493 kts 265°
2026-05-05 22:44 14.26703 117.77357 29896 ft 493 kts 265°
2026-05-05 22:45 14.26129 117.70302 29895 ft 494 kts 265°
2026-05-05 22:45 14.25558 117.63297 29898 ft 494 kts 265°
2026-05-05 22:46 14.24980 117.56234 29890 ft 494 kts 265°
2026-05-05 22:46 14.24399 117.49166 29896 ft 495 kts 265°
2026-05-05 22:47 14.23816 117.42091 29899 ft 495 kts 265°
2026-05-05 22:47 14.23231 117.35025 29896 ft 495 kts 265°
2026-05-05 22:48 14.22642 117.27941 29896 ft 495 kts 265°
2026-05-05 22:48 14.22053 117.20871 29896 ft 495 kts 265°
2026-05-05 22:49 14.21465 117.13835 29896 ft 495 kts 265°
2026-05-05 22:49 14.20870 117.06752 29898 ft 495 kts 265°
2026-05-05 22:50 14.20274 116.99678 29897 ft 495 kts 265°
2026-05-05 22:50 14.19677 116.92605 29897 ft 496 kts 266°
2026-05-05 22:51 14.19073 116.85520 29897 ft 496 kts 266°
2026-05-05 22:51 14.18469 116.78480 29901 ft 496 kts 266°
2026-05-05 22:52 14.17859 116.71390 29898 ft 496 kts 266°
2026-05-05 22:52 14.17249 116.64315 29899 ft 496 kts 266°
2026-05-05 22:53 14.16636 116.57224 29898 ft 496 kts 266°
2026-05-05 22:53 14.16020 116.50125 29894 ft 496 kts 266°
2026-05-05 22:54 14.15402 116.43040 29897 ft 496 kts 266°
2026-05-05 22:54 14.14782 116.35941 29897 ft 496 kts 266°
2026-05-05 22:55 14.14164 116.28899 29898 ft 496 kts 266°
2026-05-05 22:55 14.13541 116.21814 29899 ft 496 kts 266°
2026-05-05 22:56 14.12915 116.14733 29897 ft 496 kts 266°
2026-05-05 22:56 14.12289 116.07667 29899 ft 496 kts 266°
2026-05-05 22:57 14.11660 116.00586 29896 ft 496 kts 266°
2026-05-05 22:57 14.11030 115.93518 29897 ft 496 kts 266°
2026-05-05 22:58 14.10396 115.86440 29898 ft 496 kts 266°
2026-05-05 22:58 14.09761 115.79372 29895 ft 496 kts 266°
2026-05-05 22:59 14.09125 115.72303 29900 ft 495 kts 266°
2026-05-05 22:59 14.08486 115.65236 29902 ft 495 kts 266°
2026-05-05 23:00 14.07524 115.54631 29895 ft 495 kts 266°
2026-05-05 23:00 14.06880 115.47572 29896 ft 495 kts 265°
2026-05-05 23:01 14.06240 115.40564 29895 ft 495 kts 265°
2026-05-05 23:01 14.05592 115.33500 29898 ft 495 kts 265°
2026-05-05 23:02 14.04947 115.26492 29896 ft 494 kts 265°
2026-05-05 23:02 14.04291 115.19381 29899 ft 494 kts 265°
2026-05-05 23:03 14.03638 115.12336 29899 ft 494 kts 265°
2026-05-05 23:03 14.02984 115.05287 29897 ft 494 kts 265°
2026-05-05 23:04 14.02326 114.98229 29904 ft 494 kts 265°
2026-05-05 23:04 14.01667 114.91178 29901 ft 495 kts 265°
2026-05-05 23:05 14.01010 114.84175 29908 ft 495 kts 265°
2026-05-05 23:05 14.00346 114.77112 29906 ft 495 kts 265°
2026-05-05 23:06 13.99680 114.70053 29905 ft 495 kts 265°
2026-05-05 23:06 13.99012 114.62998 29905 ft 495 kts 265°
2026-05-05 23:07 13.98677 114.59465 30045 ft 496 kts 265°
2026-05-05 23:07 13.98342 114.55939 30353 ft 493 kts 265°
2026-05-05 23:07 13.98009 114.52441 30683 ft 491 kts 265°
2026-05-05 23:07 13.97676 114.48939 30991 ft 489 kts 265°
2026-05-05 23:08 13.97356 114.45476 31249 ft 488 kts 266°
2026-05-05 23:08 13.97244 114.41973 31483 ft 487 kts 270°
2026-05-05 23:08 13.97271 114.38503 31722 ft 487 kts 271°
2026-05-05 23:08 13.97319 114.34993 31826 ft 488 kts 271°
2026-05-05 23:09 13.97413 114.28009 31897 ft 487 kts 271°
2026-05-05 23:09 13.97479 114.21045 31895 ft 486 kts 271°
2026-05-05 23:10 13.97526 114.14097 31893 ft 485 kts 271°
2026-05-05 23:10 13.97568 114.07202 31899 ft 484 kts 271°
2026-05-05 23:11 13.97610 114.00269 31901 ft 484 kts 271°
2026-05-05 23:11 13.97651 113.93331 31899 ft 485 kts 271°
2026-05-05 23:12 13.97690 113.86375 31901 ft 486 kts 271°
2026-05-05 23:12 13.97727 113.79419 31899 ft 486 kts 271°
2026-05-05 23:13 13.97762 113.72450 31904 ft 487 kts 271°
2026-05-05 23:13 13.97795 113.65470 31904 ft 487 kts 271°
2026-05-05 23:14 13.97826 113.58477 31895 ft 488 kts 271°
2026-05-05 23:14 13.97856 113.51499 31894 ft 488 kts 271°
2026-05-05 23:15 13.97883 113.44520 31902 ft 487 kts 271°
2026-05-05 23:15 13.97908 113.37538 31894 ft 487 kts 271°
2026-05-05 23:16 13.97931 113.30568 31894 ft 487 kts 270°
2026-05-05 23:16 13.97952 113.23628 31902 ft 487 kts 270°
2026-05-05 23:17 13.97971 113.16667 31893 ft 487 kts 270°
2026-05-05 23:17 13.97989 113.09699 31893 ft 487 kts 270°
2026-05-05 23:18 13.98004 113.02724 31889 ft 487 kts 270°
2026-05-05 23:18 13.98015 112.95747 31894 ft 487 kts 270°
2026-05-05 23:19 13.98024 112.88792 31900 ft 487 kts 270°
2026-05-05 23:19 13.98031 112.81799 31893 ft 487 kts 270°
2026-05-05 23:20 13.98036 112.74813 31899 ft 487 kts 270°
2026-05-05 23:20 13.98040 112.67871 31895 ft 487 kts 270°
2026-05-05 23:21 13.98041 112.60900 31891 ft 487 kts 270°
2026-05-05 23:21 13.98041 112.55058 31893 ft 487 kts 270°
2026-05-05 23:22 13.98038 112.48093 31894 ft 487 kts 270°
2026-05-05 23:22 13.98034 112.41160 31898 ft 487 kts 270°
2026-05-05 23:23 13.98028 112.34183 31899 ft 487 kts 270°
2026-05-05 23:23 13.98019 112.27207 31893 ft 487 kts 270°
2026-05-05 23:24 13.98009 112.20213 31901 ft 487 kts 270°
2026-05-05 23:24 13.97997 112.13281 31899 ft 487 kts 270°
2026-05-05 23:25 13.97983 112.06261 31897 ft 488 kts 270°
2026-05-05 23:25 13.97967 111.99285 31899 ft 487 kts 270°
2026-05-05 23:26 13.97949 111.92351 31890 ft 488 kts 270°
2026-05-05 23:26 13.97928 111.85366 31898 ft 487 kts 270°
2026-05-05 23:27 13.97906 111.78385 31887 ft 487 kts 270°
2026-05-05 23:27 13.97882 111.71421 31892 ft 487 kts 270°
2026-05-05 23:28 13.97856 111.64433 31884 ft 487 kts 270°
2026-05-05 23:28 13.97828 111.57463 31888 ft 487 kts 270°
2026-05-05 23:29 13.97798 111.50487 31889 ft 487 kts 270°
2026-05-05 23:29 13.97767 111.43504 31890 ft 487 kts 270°
2026-05-05 23:30 13.97735 111.36574 31887 ft 487 kts 270°
2026-05-05 23:30 13.97700 111.29560 31885 ft 486 kts 270°
2026-05-05 23:31 13.97664 111.22645 31890 ft 486 kts 270°
2026-05-05 23:31 13.97626 111.15698 31889 ft 486 kts 270°
2026-05-05 23:32 13.97586 111.08727 31890 ft 485 kts 270°
2026-05-05 23:32 13.97543 111.01774 31892 ft 485 kts 270°
2026-05-05 23:33 13.97499 110.94821 31887 ft 486 kts 270°
2026-05-05 23:33 13.97453 110.87863 31890 ft 486 kts 270°
2026-05-05 23:34 13.97405 110.80904 31890 ft 486 kts 270°
2026-05-05 23:34 13.97355 110.73932 31890 ft 486 kts 270°
2026-05-05 23:35 13.97303 110.67004 31893 ft 486 kts 270°
2026-05-05 23:35 13.97249 110.60036 31890 ft 486 kts 270°
2026-05-05 23:36 13.97193 110.53095 31893 ft 486 kts 270°
2026-05-05 23:36 13.97134 110.46112 31902 ft 486 kts 270°
2026-05-05 23:37 13.97074 110.39139 31894 ft 486 kts 270°
2026-05-05 23:37 13.97012 110.32178 31893 ft 486 kts 270°
2026-05-05 23:38 13.96948 110.25218 31891 ft 486 kts 270°
2026-05-05 23:38 13.96882 110.18255 31900 ft 486 kts 270°
2026-05-05 23:39 13.96814 110.11287 31900 ft 486 kts 270°
2026-05-05 23:39 13.96745 110.04374 31897 ft 486 kts 270°
2026-05-05 23:40 13.96676 109.97411 31898 ft 486 kts 270°
2026-05-05 23:40 13.96623 109.90453 31907 ft 486 kts 270°
2026-05-05 23:41 13.96572 109.83490 31903 ft 486 kts 270°
2026-05-05 23:41 13.96516 109.76533 31895 ft 486 kts 270°
2026-05-05 23:42 13.96457 109.69568 31905 ft 486 kts 270°
2026-05-05 23:42 13.96396 109.62657 31905 ft 486 kts 270°
2026-05-05 23:43 13.96333 109.55696 31907 ft 486 kts 270°
2026-05-05 23:43 13.96265 109.48747 31909 ft 486 kts 269°
2026-05-05 23:44 13.96181 109.41795 31909 ft 486 kts 269°
2026-05-05 23:44 13.96094 109.34835 31913 ft 486 kts 269°
2026-05-05 23:45 13.96007 109.27874 31906 ft 486 kts 269°
2026-05-05 23:45 13.95919 109.20929 31916 ft 486 kts 269°
2026-05-05 23:46 13.95829 109.13978 31915 ft 486 kts 269°
2026-05-05 23:46 13.95737 109.07003 31921 ft 486 kts 269°
2026-05-05 23:47 13.95849 109.00093 31936 ft 486 kts 272°
2026-05-05 23:47 13.96217 108.93141 31927 ft 486 kts 273°
2026-05-05 23:48 13.96595 108.86186 31935 ft 486 kts 273°
2026-05-05 23:48 13.96949 108.79223 31939 ft 486 kts 273°
2026-05-05 23:49 13.97288 108.72285 31948 ft 486 kts 272°
2026-05-05 23:49 13.97625 108.65335 31943 ft 486 kts 272°
2026-05-05 23:50 13.97961 108.58377 31949 ft 486 kts 272°
2026-05-05 23:50 13.98296 108.51425 31949 ft 486 kts 272°
2026-05-05 23:51 13.98630 108.44466 31954 ft 486 kts 272°
2026-05-05 23:51 13.98962 108.37498 31956 ft 486 kts 272°
2026-05-05 23:52 13.99288 108.30592 31961 ft 486 kts 272°
2026-05-05 23:52 13.99615 108.23635 31950 ft 486 kts 272°
2026-05-05 23:53 13.99941 108.16684 31956 ft 486 kts 272°
2026-05-05 23:53 14.00263 108.09724 31947 ft 486 kts 272°
2026-05-05 23:54 14.00575 108.02771 31953 ft 486 kts 271°
2026-05-05 23:54 14.00390 107.95816 31945 ft 486 kts 267°
2026-05-05 23:55 14.00072 107.88860 31942 ft 486 kts 267°
2026-05-05 23:55 13.99802 107.81909 31936 ft 486 kts 268°
2026-05-05 23:56 13.99549 107.74986 31940 ft 486 kts 268°
2026-05-05 23:56 13.99294 107.68021 31938 ft 486 kts 267°
2026-05-05 23:57 13.99034 107.61057 31929 ft 486 kts 267°
2026-05-05 23:57 13.98772 107.54103 31918 ft 486 kts 267°
2026-05-05 23:58 13.98508 107.47140 31919 ft 486 kts 267°
2026-05-05 23:58 13.98129 107.40190 31916 ft 486 kts 262°
2026-05-05 23:59 13.97051 107.33310 31912 ft 486 kts 260°
2026-05-05 23:59 13.95955 107.26442 31911 ft 486 kts 261°
2026-05-06 00:00 13.94748 107.19596 31902 ft 486 kts 253°
2026-05-06 00:00 13.91982 107.13325 31908 ft 486 kts 238°
2026-05-06 00:01 13.87811 107.07854 31902 ft 486 kts 230°
2026-05-06 00:01 13.83468 107.02534 31910 ft 487 kts 231°
2026-05-06 00:02 13.79369 106.96976 31894 ft 487 kts 240°
2026-05-06 00:02 13.76768 106.90572 31900 ft 487 kts 255°
2026-05-06 00:03 13.75580 106.83714 31906 ft 487 kts 261°
2026-05-06 00:03 13.74575 106.76879 31902 ft 487 kts 261°
2026-05-06 00:04 13.73515 106.69981 31903 ft 488 kts 260°
2026-05-06 00:04 13.72417 106.63093 31900 ft 488 kts 260°
2026-05-06 00:05 13.70752 106.52740 31903 ft 488 kts 260°
2026-05-06 00:06 13.69644 106.45841 31898 ft 489 kts 260°
2026-05-06 00:06 13.68724 106.40122 31898 ft 489 kts 260°
2026-05-06 00:07 13.67424 106.32057 31899 ft 489 kts 260°
2026-05-06 00:07 13.66499 106.26323 31901 ft 488 kts 260°
2026-05-06 00:08 13.65385 106.19432 31906 ft 489 kts 260°
2026-05-06 00:08 13.64327 106.12516 31899 ft 489 kts 263°
2026-05-06 00:09 13.64198 106.05535 31917 ft 489 kts 271°
2026-05-06 00:09 13.64483 105.98585 31905 ft 490 kts 272°
2026-05-06 00:10 13.64749 105.91537 31902 ft 490 kts 271°
2026-05-06 00:10 13.64982 105.84572 31911 ft 490 kts 271°
2026-05-06 00:11 13.65203 105.77575 31910 ft 491 kts 271°
2026-05-06 00:11 13.65423 105.70554 31902 ft 491 kts 271°
2026-05-06 00:12 13.65642 105.63545 31910 ft 491 kts 271°
2026-05-06 00:12 13.65860 105.56518 31905 ft 490 kts 271°
2026-05-06 00:13 13.66077 105.49510 31904 ft 490 kts 271°
2026-05-06 00:13 13.66291 105.42500 31907 ft 490 kts 271°
2026-05-06 00:14 13.66501 105.35541 31903 ft 490 kts 271°
2026-05-06 00:14 13.66710 105.28550 31904 ft 490 kts 271°
2026-05-06 00:15 13.66918 105.21546 31904 ft 489 kts 271°
2026-05-06 00:15 13.67124 105.14551 31904 ft 489 kts 271°
2026-05-06 00:16 13.67328 105.07551 31907 ft 489 kts 271°
2026-05-06 00:16 13.67526 105.00570 31906 ft 489 kts 271°
2026-05-06 00:17 13.67721 104.93574 31901 ft 488 kts 271°
2026-05-06 00:17 13.67914 104.86635 31908 ft 488 kts 271°
2026-05-06 00:18 13.68105 104.79656 31900 ft 488 kts 271°
2026-05-06 00:18 13.68295 104.72669 31904 ft 489 kts 271°
2026-05-06 00:19 13.68483 104.65688 31913 ft 489 kts 271°
2026-05-06 00:19 13.68670 104.58684 31910 ft 490 kts 271°
2026-05-06 00:20 13.68854 104.51684 31903 ft 490 kts 271°
2026-05-06 00:20 13.69037 104.44689 31906 ft 490 kts 271°
2026-05-06 00:21 13.69217 104.37704 31903 ft 491 kts 271°
2026-05-06 00:21 13.69396 104.30662 31903 ft 491 kts 271°
2026-05-06 00:22 13.69572 104.23683 31902 ft 491 kts 271°
2026-05-06 00:22 13.69747 104.16672 31902 ft 491 kts 271°
2026-05-06 00:23 13.69921 104.09638 31902 ft 491 kts 271°
2026-05-06 00:23 13.70092 104.02614 31908 ft 491 kts 271°
2026-05-06 00:24 13.70261 103.95609 31899 ft 491 kts 271°
2026-05-06 00:24 13.70429 103.88574 31903 ft 492 kts 271°
2026-05-06 00:25 13.70595 103.81526 31907 ft 492 kts 271°
2026-05-06 00:25 13.70758 103.74483 31901 ft 493 kts 271°
2026-05-06 00:26 13.70918 103.67428 31899 ft 493 kts 271°
2026-05-06 00:26 13.71075 103.60378 31907 ft 494 kts 271°
2026-05-06 00:27 13.71230 103.53313 31903 ft 494 kts 271°
2026-05-06 00:27 13.71384 103.46242 31903 ft 494 kts 271°
2026-05-06 00:28 13.71535 103.39218 31909 ft 494 kts 271°
2026-05-06 00:28 13.71685 103.32151 31899 ft 494 kts 271°
2026-05-06 00:29 13.71833 103.25076 31906 ft 494 kts 271°
2026-05-06 00:29 13.71979 103.18009 31896 ft 494 kts 271°
2026-05-06 00:30 13.72123 103.10934 31907 ft 494 kts 271°
2026-05-06 00:30 13.72265 103.03861 31903 ft 495 kts 271°
2026-05-06 00:31 13.72405 102.96795 31906 ft 495 kts 271°
2026-05-06 00:31 13.72543 102.89709 31907 ft 495 kts 271°
2026-05-06 00:32 13.72678 102.82677 31901 ft 495 kts 271°
2026-05-06 00:32 13.72812 102.75594 31902 ft 495 kts 271°
2026-05-06 00:33 13.72945 102.68505 31912 ft 496 kts 271°
2026-05-06 00:33 13.73078 102.61402 31901 ft 496 kts 271°
2026-05-06 00:34 13.73217 102.54304 31908 ft 496 kts 271°
2026-05-06 00:34 13.73356 102.47211 31901 ft 496 kts 271°
2026-05-06 00:35 13.73490 102.40119 31906 ft 496 kts 271°
2026-05-06 00:35 13.73621 102.33032 31906 ft 495 kts 271°
2026-05-06 00:36 13.73753 102.25945 31916 ft 495 kts 271°
2026-05-06 00:36 13.73874 102.18908 31907 ft 495 kts 271°
2026-05-06 00:37 13.73981 102.11816 31907 ft 495 kts 271°
2026-05-06 00:37 13.74086 102.04733 31906 ft 495 kts 271°
2026-05-06 00:38 13.74191 101.97642 31902 ft 495 kts 271°
2026-05-06 00:38 13.74295 101.90554 31913 ft 496 kts 271°
2026-05-06 00:39 13.74396 101.83509 31913 ft 496 kts 271°
2026-05-06 00:39 13.74501 101.76408 31903 ft 496 kts 271°
2026-05-06 00:40 13.74610 101.69308 31915 ft 496 kts 271°
2026-05-06 00:40 13.74716 101.62215 31911 ft 496 kts 271°
2026-05-06 00:41 13.74819 101.55116 31915 ft 496 kts 271°
2026-05-06 00:41 13.74919 101.48019 31899 ft 496 kts 271°
2026-05-06 00:42 13.75018 101.40913 31904 ft 497 kts 271°
2026-05-06 00:42 13.75115 101.33805 31905 ft 497 kts 271°
2026-05-06 00:43 13.75210 101.26697 31905 ft 497 kts 271°
2026-05-06 00:43 13.75302 101.19635 31907 ft 497 kts 271°
2026-05-06 00:44 13.75393 101.12526 31914 ft 497 kts 271°
2026-05-06 00:44 13.75482 101.05426 31916 ft 497 kts 271°
2026-05-06 00:45 13.75568 100.98314 31915 ft 496 kts 271°
2026-05-06 00:45 13.75653 100.91210 31908 ft 496 kts 271°
2026-05-06 00:46 13.75729 100.84118 31907 ft 496 kts 270°
2026-05-06 00:46 13.75772 100.77040 31910 ft 496 kts 270°
2026-05-06 00:47 13.76176 100.70004 31899 ft 496 kts 279°
2026-05-06 00:47 13.77394 100.63017 31908 ft 496 kts 281°
2026-05-06 00:48 13.78645 100.56034 31909 ft 496 kts 280°
2026-05-06 00:48 13.79859 100.49048 31912 ft 496 kts 280°
2026-05-06 00:49 13.81051 100.42043 31909 ft 496 kts 280°
2026-05-06 00:49 13.82235 100.35049 31907 ft 496 kts 280°
2026-05-06 00:50 13.83419 100.28051 31901 ft 497 kts 280°
2026-05-06 00:50 13.84604 100.21045 31908 ft 497 kts 280°
2026-05-06 00:51 13.85790 100.14024 31902 ft 498 kts 280°
2026-05-06 00:51 13.86973 100.07002 31909 ft 498 kts 280°
2026-05-06 00:52 13.88154 99.99981 31898 ft 498 kts 280°
2026-05-06 00:52 13.89133 99.94153 31898 ft 499 kts 280°
2026-05-06 00:53 13.90506 99.85963 31914 ft 499 kts 280°
2026-05-06 00:53 13.91491 99.80077 31898 ft 499 kts 280°
2026-05-06 00:54 13.92668 99.73032 31914 ft 498 kts 280°
2026-05-06 00:54 13.93841 99.65997 31905 ft 498 kts 280°
2026-05-06 00:55 13.95005 99.59007 31910 ft 498 kts 280°
2026-05-06 00:55 13.96175 99.51966 31909 ft 498 kts 280°
2026-05-06 00:56 13.97341 99.44932 31923 ft 498 kts 280°
2026-05-06 00:56 13.98505 99.37902 31925 ft 498 kts 280°
2026-05-06 00:57 13.99669 99.30857 31912 ft 499 kts 280°
2026-05-06 00:57 14.00831 99.23815 31931 ft 499 kts 280°
2026-05-06 00:58 14.01989 99.16775 31919 ft 499 kts 280°
2026-05-06 00:58 14.03146 99.09737 31928 ft 498 kts 280°
2026-05-06 00:59 14.04302 99.02691 31929 ft 498 kts 280°
2026-05-06 00:59 14.05365 98.95637 31934 ft 499 kts 276°
2026-05-06 01:00 14.05837 98.88511 31937 ft 499 kts 274°
2026-05-06 01:00 14.06247 98.81431 31939 ft 498 kts 274°
2026-05-06 01:01 14.06688 98.74308 31947 ft 498 kts 274°
2026-05-06 01:01 14.07148 98.67182 31938 ft 498 kts 274°
2026-05-06 01:02 14.07608 98.60072 31923 ft 498 kts 275°
2026-05-06 01:02 14.08065 98.52949 31939 ft 498 kts 274°
2026-05-06 01:03 14.08518 98.45830 31924 ft 498 kts 274°
2026-05-06 01:03 14.08969 98.38704 31922 ft 498 kts 274°
2026-05-06 01:04 14.09418 98.31578 31925 ft 498 kts 274°
2026-05-06 01:04 14.09866 98.24452 31902 ft 498 kts 274°
2026-05-06 01:05 14.10818 98.17398 31900 ft 496 kts 285°
2026-05-06 01:05 14.12564 98.10567 31896 ft 496 kts 285°
2026-05-06 01:06 14.14430 98.03369 31909 ft 496 kts 285°
2026-05-06 01:06 14.16176 97.96487 31889 ft 497 kts 285°
2026-05-06 01:07 14.17901 97.89595 31889 ft 497 kts 285°
2026-05-06 01:07 14.19621 97.82696 31894 ft 497 kts 285°
2026-05-06 01:08 14.21338 97.75801 31899 ft 496 kts 285°
2026-05-06 01:08 14.23041 97.68962 31900 ft 496 kts 285°
2026-05-06 01:09 14.24753 97.62077 31883 ft 495 kts 285°
2026-05-06 01:09 14.26462 97.55199 31889 ft 495 kts 285°
2026-05-06 01:10 14.28165 97.48335 31899 ft 494 kts 285°
2026-05-06 01:10 14.29866 97.41466 31901 ft 494 kts 285°
2026-05-06 01:11 14.31564 97.34604 31886 ft 494 kts 285°
2026-05-06 01:11 14.33265 97.27723 31889 ft 495 kts 285°
2026-05-06 01:12 14.34961 97.20848 31886 ft 495 kts 285°
2026-05-06 01:12 14.36664 97.13940 31901 ft 496 kts 285°
2026-05-06 01:13 14.38350 97.07089 31896 ft 496 kts 285°
2026-05-06 01:13 14.40048 97.00178 31883 ft 497 kts 285°
2026-05-06 01:14 14.42593 96.89808 31881 ft 497 kts 285°
2026-05-06 01:14 14.44287 96.82894 31883 ft 497 kts 285°
2026-05-06 01:15 14.45976 96.75991 31879 ft 497 kts 284°
2026-05-06 01:15 14.47667 96.69069 31893 ft 497 kts 284°
2026-05-06 01:16 14.49354 96.62152 31893 ft 497 kts 284°
2026-05-06 01:16 14.51042 96.55224 31895 ft 497 kts 284°
2026-05-06 01:17 14.52713 96.48356 31880 ft 497 kts 284°
2026-05-06 01:17 14.54396 96.41433 31887 ft 497 kts 284°
2026-05-06 01:18 14.56073 96.34520 31896 ft 496 kts 284°
2026-05-06 01:18 14.57749 96.27603 31897 ft 496 kts 284°
2026-05-06 01:19 14.59423 96.20689 31882 ft 496 kts 284°
2026-05-06 01:19 14.61095 96.13770 31879 ft 496 kts 284°
2026-05-06 01:20 14.62764 96.06854 31896 ft 496 kts 284°
2026-05-06 01:20 14.64431 95.99938 31896 ft 496 kts 284°
2026-05-06 01:21 14.66092 95.93034 31886 ft 496 kts 284°
2026-05-06 01:21 14.67757 95.86109 31890 ft 496 kts 284°
2026-05-06 01:22 14.69416 95.79197 31895 ft 496 kts 284°
2026-05-06 01:22 14.71068 95.72305 31894 ft 496 kts 284°
2026-05-06 01:23 14.72721 95.65399 31889 ft 496 kts 284°
2026-05-06 01:23 14.74373 95.58487 31884 ft 495 kts 284°
2026-05-06 01:24 14.76021 95.51580 31895 ft 495 kts 284°
2026-05-06 01:24 14.77668 95.44669 31898 ft 495 kts 284°
2026-05-06 01:25 14.79314 95.37755 31877 ft 495 kts 284°
2026-05-06 01:25 14.80955 95.30852 31895 ft 494 kts 284°
2026-05-06 01:26 14.82578 95.24016 31882 ft 494 kts 284°
2026-05-06 01:26 14.83950 95.18225 31896 ft 493 kts 284°
2026-05-06 01:27 14.85581 95.11337 31882 ft 493 kts 284°
2026-05-06 01:27 14.87200 95.04487 31889 ft 493 kts 284°
2026-05-06 01:28 14.88825 94.97602 31885 ft 492 kts 284°
2026-05-06 01:28 14.90446 94.90728 31888 ft 492 kts 284°
2026-05-06 01:29 14.92064 94.83854 31885 ft 491 kts 284°
2026-05-06 01:29 14.93678 94.76990 31886 ft 491 kts 284°
2026-05-06 01:30 14.95286 94.70138 31890 ft 490 kts 284°
2026-05-06 01:30 14.96891 94.63291 31888 ft 490 kts 284°
2026-05-06 01:31 14.98484 94.56486 31886 ft 489 kts 284°
2026-05-06 01:31 15.00080 94.49656 31890 ft 489 kts 284°
2026-05-06 01:32 15.01673 94.42831 31890 ft 488 kts 284°
2026-05-06 01:32 15.03262 94.36015 31888 ft 488 kts 284°
2026-05-06 01:33 15.04855 94.29173 31888 ft 487 kts 284°
2026-05-06 01:33 15.06437 94.22363 31889 ft 487 kts 284°
2026-05-06 01:34 15.08009 94.15591 31888 ft 487 kts 283°
2026-05-06 01:34 15.09595 94.08745 31888 ft 486 kts 283°
2026-05-06 01:35 15.11173 94.01927 31884 ft 486 kts 283°
2026-05-06 01:35 15.12734 93.95172 31885 ft 486 kts 283°
2026-05-06 01:36 15.14303 93.88374 31884 ft 485 kts 283°
2026-05-06 01:36 15.15869 93.81575 31890 ft 485 kts 283°
2026-05-06 01:37 15.17431 93.74785 31886 ft 484 kts 283°
2026-05-06 01:37 15.18990 93.68000 31883 ft 484 kts 283°
2026-05-06 01:38 15.20545 93.61222 31887 ft 484 kts 283°
2026-05-06 01:38 15.22103 93.54421 31892 ft 485 kts 283°
2026-05-06 01:39 15.23657 93.47630 31884 ft 485 kts 283°
2026-05-06 01:39 15.25202 93.40863 31890 ft 485 kts 282°
2026-05-06 01:40 15.26755 93.34054 31887 ft 485 kts 282°
2026-05-06 01:40 15.28307 93.27241 31895 ft 485 kts 282°
2026-05-06 01:41 15.29853 93.20440 31886 ft 485 kts 282°
2026-05-06 01:41 15.31399 93.13635 31885 ft 485 kts 282°
2026-05-06 01:42 15.32939 93.06840 31882 ft 484 kts 282°
2026-05-06 01:42 15.34479 93.00039 31884 ft 484 kts 282°
2026-05-06 01:43 15.36012 92.93259 31886 ft 483 kts 282°
2026-05-06 01:43 15.37540 92.86485 31890 ft 483 kts 282°
2026-05-06 01:44 15.39058 92.79752 31886 ft 482 kts 282°
2026-05-06 01:44 15.40589 92.72949 31888 ft 482 kts 282°
2026-05-06 01:45 15.42099 92.66227 31889 ft 482 kts 282°
2026-05-06 01:45 15.43653 92.59470 31891 ft 482 kts 283°
2026-05-06 01:46 15.45329 92.52737 31891 ft 482 kts 283°
2026-05-06 01:46 15.47017 92.46000 31884 ft 482 kts 283°
2026-05-06 01:47 15.48683 92.39266 31885 ft 483 kts 283°
2026-05-06 01:47 15.50341 92.32517 31887 ft 483 kts 283°
2026-05-06 01:48 15.51999 92.25759 31883 ft 484 kts 283°
2026-05-06 01:48 15.53656 92.18997 31882 ft 484 kts 283°
2026-05-06 01:49 15.55313 92.12228 31884 ft 484 kts 283°
2026-05-06 01:49 15.56881 92.05815 31878 ft 485 kts 283°
2026-05-06 01:50 15.58534 91.99045 31883 ft 485 kts 283°
2026-05-06 01:50 15.60164 91.92307 31879 ft 485 kts 282°
2026-05-06 01:51 15.61797 91.85520 31885 ft 485 kts 282°
2026-05-06 01:51 15.63431 91.78726 31877 ft 485 kts 282°
2026-05-06 01:52 15.65060 91.71943 31877 ft 485 kts 282°
2026-05-06 01:52 15.66687 91.65163 31878 ft 485 kts 282°
2026-05-06 01:53 15.68317 91.58364 31883 ft 485 kts 282°
2026-05-06 01:53 15.69940 91.51579 31882 ft 485 kts 282°
2026-05-06 01:54 15.71564 91.44783 31880 ft 485 kts 282°
2026-05-06 01:54 15.73173 91.38040 31882 ft 485 kts 282°
2026-05-06 01:55 15.74791 91.31249 31876 ft 484 kts 282°
2026-05-06 01:55 15.76409 91.24449 31882 ft 484 kts 282°
2026-05-06 01:56 15.78023 91.17654 31884 ft 484 kts 282°
2026-05-06 01:56 15.79635 91.10856 31880 ft 485 kts 282°
2026-05-06 01:57 15.81243 91.04067 31877 ft 485 kts 282°
2026-05-06 01:57 15.82854 90.97257 31877 ft 485 kts 282°
2026-05-06 01:58 15.84453 90.90487 31881 ft 485 kts 281°
2026-05-06 01:58 15.86059 90.83675 31883 ft 486 kts 281°
2026-05-06 01:59 15.87663 90.76863 31877 ft 486 kts 281°
2026-05-06 01:59 15.89269 90.70033 31884 ft 486 kts 281°
2026-05-06 02:00 15.90869 90.63215 31879 ft 486 kts 281°
2026-05-06 02:00 15.92469 90.56392 31880 ft 486 kts 281°
2026-05-06 02:01 15.94066 90.49568 31877 ft 486 kts 281°
2026-05-06 02:01 15.95661 90.42742 31877 ft 486 kts 281°
2026-05-06 02:02 15.97253 90.35920 31872 ft 485 kts 281°
2026-05-06 02:02 15.98839 90.29109 31878 ft 485 kts 281°
2026-05-06 02:03 16.00414 90.22337 31880 ft 485 kts 281°
2026-05-06 02:03 16.02000 90.15524 31868 ft 485 kts 281°
2026-05-06 02:04 16.03630 90.08719 31875 ft 485 kts 282°
2026-05-06 02:04 16.05279 90.01908 31872 ft 485 kts 282°
2026-05-06 02:05 16.06917 89.95113 31870 ft 485 kts 282°
2026-05-06 02:05 16.08549 89.88304 31870 ft 485 kts 282°
2026-05-06 02:06 16.10181 89.81485 31870 ft 485 kts 282°
2026-05-06 02:06 16.11795 89.74731 31872 ft 485 kts 282°
2026-05-06 02:07 16.13420 89.67919 31872 ft 485 kts 282°
2026-05-06 02:07 16.15045 89.61100 31868 ft 485 kts 282°
2026-05-06 02:08 16.16667 89.54281 31871 ft 485 kts 282°
2026-05-06 02:08 16.18279 89.47496 31881 ft 485 kts 281°
2026-05-06 02:09 16.19897 89.40675 31871 ft 486 kts 282°
2026-05-06 02:09 16.21511 89.33859 31876 ft 486 kts 282°
2026-05-06 02:10 16.23132 89.27002 31872 ft 486 kts 282°
2026-05-06 02:10 16.24745 89.20170 31872 ft 486 kts 282°
2026-05-06 02:11 16.26355 89.13344 31877 ft 486 kts 281°
2026-05-06 02:11 16.27972 89.06503 31873 ft 486 kts 282°
2026-05-06 02:12 16.29632 88.99690 31873 ft 486 kts 282°
2026-05-06 02:12 16.31293 88.92916 31873 ft 486 kts 282°
2026-05-06 02:13 16.32955 88.86107 31869 ft 485 kts 282°
2026-05-06 02:13 16.34611 88.79288 31870 ft 485 kts 282°
2026-05-06 02:14 16.36259 88.72490 31872 ft 484 kts 282°
2026-05-06 02:14 16.37912 88.65657 32069 ft 487 kts 282°
2026-05-06 02:15 16.38736 88.62251 32395 ft 485 kts 282°
2026-05-06 02:15 16.39556 88.58859 32771 ft 481 kts 282°
2026-05-06 02:15 16.40370 88.55489 33157 ft 478 kts 282°
2026-05-06 02:15 16.41179 88.52138 33505 ft 476 kts 282°
2026-05-06 02:16 16.41980 88.48816 33786 ft 475 kts 282°
2026-05-06 02:16 16.42786 88.45467 33813 ft 476 kts 282°
2026-05-06 02:16 16.44397 88.38770 33861 ft 475 kts 282°
2026-05-06 02:17 16.45995 88.32122 33875 ft 472 kts 282°
2026-05-06 02:17 16.47576 88.25531 33874 ft 471 kts 282°
2026-05-06 02:18 16.49163 88.18907 33874 ft 470 kts 282°
2026-05-06 02:18 16.50748 88.12283 33870 ft 471 kts 282°
2026-05-06 02:19 16.52330 88.05656 33874 ft 471 kts 282°
2026-05-06 02:19 16.53903 87.99062 33874 ft 472 kts 282°
2026-05-06 02:20 16.56278 87.89085 33872 ft 473 kts 282°
2026-05-06 02:21 16.57859 87.82434 33872 ft 473 kts 282°
2026-05-06 02:21 16.59441 87.75765 33872 ft 474 kts 282°
2026-05-06 02:22 16.61013 87.69130 33871 ft 474 kts 282°
2026-05-06 02:22 16.62593 87.62452 33873 ft 475 kts 282°
2026-05-06 02:23 16.64183 87.55717 33873 ft 476 kts 282°
2026-05-06 02:23 16.65755 87.49050 33870 ft 477 kts 281°
2026-05-06 02:24 16.67337 87.42334 33871 ft 477 kts 281°
2026-05-06 02:24 16.68919 87.35606 33872 ft 478 kts 281°
2026-05-06 02:25 16.70499 87.28875 33873 ft 478 kts 281°
2026-05-06 02:25 16.72077 87.22140 33872 ft 477 kts 281°
2026-05-06 02:26 16.73650 87.15420 33868 ft 476 kts 281°
2026-05-06 02:26 16.75237 87.08715 33869 ft 475 kts 282°
2026-05-06 02:27 16.76835 87.02025 33867 ft 474 kts 282°
2026-05-06 02:27 16.78427 86.95345 33866 ft 474 kts 281°
2026-05-06 02:28 16.80011 86.88671 33869 ft 473 kts 281°
2026-05-06 02:28 16.81589 86.82010 33868 ft 473 kts 281°
2026-05-06 02:29 16.82897 86.76476 33871 ft 473 kts 281°
2026-05-06 02:29 16.84473 86.69807 33867 ft 473 kts 281°
2026-05-06 02:30 16.86052 86.63111 33869 ft 473 kts 281°
2026-05-06 02:30 16.87621 86.56445 33868 ft 474 kts 281°
2026-05-06 02:31 16.89193 86.49761 33861 ft 474 kts 281°
2026-05-06 02:31 16.90752 86.43121 33863 ft 474 kts 281°
2026-05-06 02:32 16.92322 86.36423 33865 ft 474 kts 281°
2026-05-06 02:32 16.93886 86.29741 33866 ft 474 kts 281°
2026-05-06 02:33 16.95450 86.23048 33865 ft 474 kts 281°
2026-05-06 02:33 16.95968 86.20828 33867 ft 474 kts 281°
2026-05-06 02:34 16.98568 86.09673 33866 ft 473 kts 281°
2026-05-06 02:34 17.00123 86.02985 33867 ft 473 kts 281°
2026-05-06 02:35 17.01666 85.96343 33866 ft 473 kts 281°
2026-05-06 02:35 17.03217 85.89652 33863 ft 473 kts 281°
2026-05-06 02:36 17.04765 85.82964 33866 ft 473 kts 281°
2026-05-06 02:36 17.06311 85.76275 33866 ft 474 kts 281°
2026-05-06 02:37 17.07855 85.69581 33865 ft 474 kts 281°
2026-05-06 02:37 17.09400 85.62877 33865 ft 474 kts 281°
2026-05-06 02:38 17.10945 85.56158 33865 ft 475 kts 281°
2026-05-06 02:38 17.12486 85.49448 33869 ft 475 kts 281°
2026-05-06 02:39 17.14028 85.42722 33868 ft 475 kts 281°
2026-05-06 02:39 17.15569 85.35991 33868 ft 475 kts 281°
2026-05-06 02:40 17.17108 85.29267 33868 ft 475 kts 281°
2026-05-06 02:40 17.18698 85.22547 33864 ft 476 kts 281°
2026-05-06 02:41 17.20292 85.15886 33870 ft 476 kts 281°
2026-05-06 02:41 17.21889 85.09171 33870 ft 476 kts 281°
2026-05-06 02:42 17.23478 85.02459 33866 ft 476 kts 281°
2026-05-06 02:42 17.25064 84.95740 33869 ft 475 kts 281°
2026-05-06 02:43 17.26652 84.89008 33869 ft 475 kts 281°
2026-05-06 02:43 17.28228 84.82312 33872 ft 475 kts 281°
2026-05-06 02:44 17.29806 84.75600 33871 ft 475 kts 281°
2026-05-06 02:44 17.31386 84.68869 33873 ft 475 kts 281°
2026-05-06 02:45 17.32948 84.62201 33872 ft 475 kts 281°
2026-05-06 02:45 17.34532 84.55431 33871 ft 475 kts 281°
2026-05-06 02:46 17.36092 84.48767 33874 ft 475 kts 282°
2026-05-06 02:46 17.37736 84.42062 33878 ft 475 kts 282°
2026-05-06 02:47 17.39404 84.35355 33872 ft 475 kts 282°
2026-05-06 02:47 17.41060 84.28653 33872 ft 475 kts 282°
2026-05-06 02:48 17.42708 84.21942 33871 ft 475 kts 282°
2026-05-06 02:48 17.44351 84.15234 33873 ft 475 kts 282°
2026-05-06 02:49 17.45982 84.08568 33873 ft 475 kts 282°
2026-05-06 02:49 17.47620 84.01864 33878 ft 475 kts 282°
2026-05-06 02:50 17.49255 83.95162 33874 ft 475 kts 282°
2026-05-06 02:50 17.50901 83.88483 33879 ft 475 kts 283°
2026-05-06 02:51 17.52612 83.81786 33870 ft 474 kts 283°
2026-05-06 02:51 17.54321 83.75115 33871 ft 474 kts 283°
2026-05-06 02:52 17.56021 83.68430 33879 ft 474 kts 283°
2026-05-06 02:52 17.57710 83.61761 33881 ft 474 kts 283°
2026-05-06 02:53 17.59399 83.55081 33877 ft 473 kts 283°
2026-05-06 02:53 17.61072 83.48458 33869 ft 473 kts 283°
2026-05-06 02:54 17.62755 83.41785 33865 ft 473 kts 283°
2026-05-06 02:54 17.64434 83.35115 33863 ft 473 kts 283°
2026-05-06 02:55 17.66114 83.28433 33862 ft 474 kts 283°
2026-05-06 02:55 17.67967 83.21804 33866 ft 475 kts 287°
2026-05-06 02:56 17.70102 83.15241 33852 ft 476 kts 287°
2026-05-06 02:56 17.72256 83.08681 33867 ft 476 kts 287°
2026-05-06 02:57 17.74389 83.02107 33872 ft 476 kts 287°
2026-05-06 02:57 17.76508 82.95526 33884 ft 476 kts 287°
2026-05-06 02:58 17.78621 82.88945 33900 ft 476 kts 287°
2026-05-06 02:58 17.80721 82.82400 33916 ft 476 kts 287°
2026-05-06 02:59 17.82830 82.75820 33923 ft 476 kts 287°
2026-05-06 02:59 17.84936 82.69242 33934 ft 476 kts 287°
2026-05-06 03:00 17.87043 82.62654 33930 ft 476 kts 287°
2026-05-06 03:00 17.89145 82.56072 33938 ft 476 kts 287°
2026-05-06 03:01 17.91243 82.49492 33945 ft 476 kts 287°
2026-05-06 03:01 17.93345 82.42891 33947 ft 476 kts 287°
2026-05-06 03:02 17.95444 82.36292 33934 ft 476 kts 287°
2026-05-06 03:02 17.97526 82.29739 33937 ft 476 kts 287°
2026-05-06 03:03 17.99615 82.23153 33950 ft 476 kts 287°
2026-05-06 03:03 18.01706 82.16553 33947 ft 476 kts 287°
2026-05-06 03:04 18.03802 82.09926 33931 ft 477 kts 287°
2026-05-06 03:04 18.05897 82.03298 33924 ft 477 kts 287°
2026-05-06 03:05 18.08001 81.96682 33926 ft 478 kts 287°
2026-05-06 03:05 18.10174 81.90068 33932 ft 479 kts 287°
2026-05-06 03:06 18.12355 81.83462 33914 ft 479 kts 287°
2026-05-06 03:06 18.14530 81.76835 33902 ft 478 kts 287°
2026-05-06 03:07 18.16679 81.70260 33907 ft 478 kts 287°
2026-05-06 03:07 18.18834 81.63655 33902 ft 477 kts 287°
2026-05-06 03:08 18.20986 81.57052 33899 ft 477 kts 287°
2026-05-06 03:08 18.23131 81.50461 33901 ft 476 kts 287°
2026-05-06 03:09 18.25276 81.43864 33897 ft 476 kts 287°
2026-05-06 03:09 18.27415 81.37277 33912 ft 476 kts 287°
2026-05-06 03:10 18.29549 81.30694 33892 ft 476 kts 287°
2026-05-06 03:10 18.31683 81.24104 33899 ft 475 kts 287°
2026-05-06 03:11 18.33810 81.17529 33896 ft 475 kts 287°
2026-05-06 03:11 18.35935 81.10948 33896 ft 474 kts 287°
2026-05-06 03:12 18.38040 81.04421 33895 ft 474 kts 287°
2026-05-06 03:12 18.40156 80.97853 33894 ft 474 kts 287°
2026-05-06 03:13 18.42270 80.91281 33890 ft 473 kts 287°
2026-05-06 03:13 18.44378 80.84720 33894 ft 473 kts 287°
2026-05-06 03:14 18.46483 80.78156 33889 ft 473 kts 287°
2026-05-06 03:14 18.48590 80.71583 33886 ft 473 kts 287°
2026-05-06 03:15 18.50336 80.66125 33887 ft 473 kts 287°
2026-05-06 03:15 18.52436 80.59556 33888 ft 474 kts 287°
2026-05-06 03:16 18.54488 80.52960 33879 ft 474 kts 285°
2026-05-06 03:16 18.56469 80.46319 33886 ft 474 kts 285°
2026-05-06 03:17 18.58443 80.39677 33880 ft 474 kts 285°
2026-05-06 03:17 18.60424 80.33040 33878 ft 474 kts 285°
2026-05-06 03:18 18.62404 80.26423 33879 ft 474 kts 285°
2026-05-06 03:18 18.64385 80.19795 33872 ft 473 kts 285°
2026-05-06 03:19 18.66347 80.13218 33873 ft 473 kts 285°
2026-05-06 03:19 18.68318 80.06603 33878 ft 472 kts 285°
2026-05-06 03:20 18.71263 79.96698 33875 ft 472 kts 285°
2026-05-06 03:20 18.73228 79.90081 33879 ft 471 kts 285°
2026-05-06 03:21 18.75183 79.83487 33879 ft 471 kts 285°
2026-05-06 03:21 18.77133 79.76900 33881 ft 471 kts 285°
2026-05-06 03:22 18.79077 79.70322 33885 ft 470 kts 285°
2026-05-06 03:22 18.81021 79.63736 33888 ft 470 kts 285°
2026-05-06 03:23 18.82960 79.57158 33889 ft 470 kts 285°
2026-05-06 03:23 18.84904 79.50555 33892 ft 470 kts 285°
2026-05-06 03:24 18.86841 79.43964 33895 ft 469 kts 285°
2026-05-06 03:24 18.88773 79.37382 33899 ft 469 kts 285°
2026-05-06 03:25 18.90701 79.30804 33905 ft 469 kts 285°
2026-05-06 03:25 18.92612 79.24275 33900 ft 469 kts 285°
2026-05-06 03:26 18.94541 79.17674 33906 ft 468 kts 285°
2026-05-06 03:26 18.96460 79.11096 33910 ft 468 kts 285°
2026-05-06 03:27 18.98378 79.04516 33914 ft 468 kts 285°
2026-05-06 03:27 19.00288 78.97952 33917 ft 468 kts 285°
2026-05-06 03:28 19.02186 78.91421 33917 ft 467 kts 285°
2026-05-06 03:28 19.04091 78.84855 33913 ft 467 kts 285°
2026-05-06 03:29 19.05996 78.78280 33914 ft 468 kts 285°
2026-05-06 03:29 19.07897 78.71709 33924 ft 468 kts 285°
2026-05-06 03:30 19.09797 78.65132 33917 ft 468 kts 285°
2026-05-06 03:30 19.11696 78.58548 33922 ft 468 kts 285°
2026-05-06 03:31 19.13594 78.51961 33918 ft 468 kts 285°
2026-05-06 03:31 19.15487 78.45377 33922 ft 467 kts 285°
2026-05-06 03:32 19.17373 78.38811 33921 ft 467 kts 285°
2026-05-06 03:32 19.19254 78.32251 33923 ft 467 kts 285°
2026-05-06 03:33 19.21136 78.25677 33919 ft 467 kts 285°
2026-05-06 03:33 19.23017 78.19099 33919 ft 467 kts 285°
2026-05-06 03:34 19.24887 78.12526 33919 ft 466 kts 284°
2026-05-06 03:34 19.26452 78.05877 33926 ft 465 kts 282°
2026-05-06 03:35 19.27931 77.99214 33919 ft 465 kts 282°
2026-05-06 03:35 19.29441 77.92553 33921 ft 465 kts 282°
2026-05-06 03:36 19.30973 77.85889 33921 ft 466 kts 282°
2026-05-06 03:36 19.32504 77.79266 33920 ft 466 kts 282°
2026-05-06 03:37 19.34039 77.72602 33924 ft 466 kts 282°
2026-05-06 03:37 19.35569 77.65938 33924 ft 466 kts 282°
2026-05-06 03:38 19.37096 77.59270 33925 ft 466 kts 282°
2026-05-06 03:38 19.38625 77.52587 33931 ft 466 kts 282°
2026-05-06 03:39 19.40148 77.45916 33931 ft 466 kts 282°
2026-05-06 03:39 19.41670 77.39236 33933 ft 467 kts 282°
2026-05-06 03:40 19.43181 77.32592 33933 ft 467 kts 282°
2026-05-06 03:40 19.44707 77.25874 33932 ft 467 kts 282°
2026-05-06 03:41 19.46213 77.19214 33930 ft 467 kts 282°
2026-05-06 03:41 19.47724 77.12512 33930 ft 467 kts 282°
2026-05-06 03:42 19.49229 77.05824 33933 ft 467 kts 282°
2026-05-06 03:42 19.50736 76.99116 33928 ft 467 kts 282°
2026-05-06 03:43 19.52239 76.92412 33935 ft 467 kts 282°
2026-05-06 03:43 19.53742 76.85699 33934 ft 467 kts 282°
2026-05-06 03:44 19.55249 76.78995 33938 ft 467 kts 283°
2026-05-06 03:44 19.56773 76.72291 33933 ft 468 kts 283°
2026-05-06 03:45 19.58298 76.65577 33931 ft 468 kts 283°
2026-05-06 03:45 19.59817 76.58869 33933 ft 468 kts 283°
2026-05-06 03:46 19.61333 76.52153 33927 ft 469 kts 283°
2026-05-06 03:46 19.62837 76.45471 33934 ft 469 kts 283°
2026-05-06 03:47 19.64350 76.38745 33930 ft 469 kts 283°
2026-05-06 03:47 19.65859 76.32019 33935 ft 469 kts 283°
2026-05-06 03:48 19.67369 76.25281 33926 ft 469 kts 283°
2026-05-06 03:48 19.68875 76.18545 33930 ft 469 kts 283°
2026-05-06 03:49 19.70380 76.11802 33932 ft 469 kts 283°
2026-05-06 03:49 19.71881 76.05067 33932 ft 469 kts 283°
2026-05-06 03:50 19.73372 75.98359 33926 ft 469 kts 283°
2026-05-06 03:50 19.74868 75.91623 33928 ft 469 kts 283°
2026-05-06 03:51 19.76362 75.84876 33925 ft 469 kts 283°
2026-05-06 03:51 19.77853 75.78135 33934 ft 469 kts 283°
2026-05-06 03:52 19.79330 75.71440 33933 ft 469 kts 283°
2026-05-06 03:52 19.80817 75.64692 33949 ft 469 kts 283°
2026-05-06 03:53 19.82301 75.57941 33956 ft 469 kts 283°
2026-05-06 03:53 19.83783 75.51186 33963 ft 470 kts 283°
2026-05-06 03:54 19.85265 75.44420 33968 ft 470 kts 283°
2026-05-06 03:54 19.86710 75.37655 33965 ft 470 kts 281°
2026-05-06 03:55 19.87979 75.30835 33969 ft 470 kts 281°
2026-05-06 03:55 19.89209 75.24009 33962 ft 470 kts 281°
2026-05-06 03:56 19.90450 75.17214 33957 ft 471 kts 281°
2026-05-06 03:56 19.91709 75.10392 33949 ft 471 kts 281°
2026-05-06 03:57 19.92972 75.03563 33950 ft 470 kts 281°
2026-05-06 03:57 19.94229 74.96742 33948 ft 470 kts 281°
2026-05-06 03:58 19.95482 74.89927 33943 ft 470 kts 281°
2026-05-06 03:58 19.96726 74.83144 33951 ft 470 kts 281°
2026-05-06 03:59 19.97979 74.76294 33953 ft 470 kts 281°
2026-05-06 03:59 19.99226 74.69465 33954 ft 470 kts 281°
2026-05-06 04:00 20.00469 74.62644 33958 ft 470 kts 281°
2026-05-06 04:00 20.01707 74.55832 33963 ft 470 kts 281°
2026-05-06 04:01 20.02741 74.50129 33960 ft 470 kts 281°
2026-05-06 04:01 20.03976 74.43302 33960 ft 470 kts 281°
2026-05-06 04:02 20.05405 74.35391 33963 ft 469 kts 281°
2026-05-06 04:02 20.06436 74.29667 33974 ft 469 kts 281°
2026-05-06 04:03 20.07655 74.22884 33980 ft 469 kts 281°
2026-05-06 04:03 20.08877 74.16069 33986 ft 469 kts 281°
2026-05-06 04:04 20.10097 74.09251 33987 ft 469 kts 281°
2026-05-06 04:04 20.11315 74.02427 33993 ft 469 kts 281°
2026-05-06 04:05 20.12531 73.95599 33993 ft 469 kts 281°
2026-05-06 04:05 20.13743 73.88779 33997 ft 469 kts 281°
2026-05-06 04:06 20.14953 73.81955 33999 ft 469 kts 281°
2026-05-06 04:06 20.16161 73.75122 33987 ft 470 kts 281°
2026-05-06 04:07 20.17367 73.68292 33985 ft 470 kts 281°
2026-05-06 04:07 20.18572 73.61443 33983 ft 470 kts 281°
2026-05-06 04:08 20.19772 73.54611 33967 ft 470 kts 281°
2026-05-06 04:08 20.20967 73.47788 33964 ft 470 kts 281°
2026-05-06 04:09 20.22159 73.40971 33955 ft 470 kts 281°
2026-05-06 04:09 20.23351 73.34131 33951 ft 470 kts 281°
2026-05-06 04:10 20.24545 73.27271 33943 ft 470 kts 281°
2026-05-06 04:10 20.25775 73.20450 33932 ft 470 kts 282°
2026-05-06 04:11 20.27071 73.13619 33928 ft 469 kts 282°
2026-05-06 04:11 20.28362 73.06804 33931 ft 469 kts 282°
2026-05-06 04:12 20.29633 73.00026 33917 ft 469 kts 282°
2026-05-06 04:12 20.30906 72.93196 33919 ft 469 kts 282°
2026-05-06 04:13 20.32174 72.86371 33913 ft 469 kts 282°
2026-05-06 04:13 20.33442 72.79539 33913 ft 470 kts 282°
2026-05-06 04:14 20.34706 72.72706 33901 ft 470 kts 282°
2026-05-06 04:14 20.35969 72.65870 33899 ft 470 kts 282°
2026-05-06 04:15 20.37227 72.59048 33900 ft 470 kts 282°
2026-05-06 04:15 20.38477 72.52247 33895 ft 470 kts 282°
2026-05-06 04:16 20.39732 72.45405 33896 ft 470 kts 282°
2026-05-06 04:16 20.40985 72.38559 33892 ft 470 kts 282°
2026-05-06 04:17 20.42234 72.31720 33892 ft 470 kts 282°
2026-05-06 04:17 20.43482 72.24872 33888 ft 470 kts 282°
2026-05-06 04:18 20.44726 72.18030 33891 ft 470 kts 282°
2026-05-06 04:18 20.45967 72.11185 33890 ft 470 kts 282°
2026-05-06 04:19 20.47206 72.04338 33895 ft 470 kts 281°
2026-05-06 04:19 20.48433 71.97539 33894 ft 470 kts 281°
2026-05-06 04:20 20.49661 71.90696 33892 ft 469 kts 281°
2026-05-06 04:20 20.50888 71.83845 33894 ft 469 kts 281°
2026-05-06 04:21 20.52109 71.77016 33894 ft 469 kts 281°
2026-05-06 04:21 20.53331 71.70159 33890 ft 469 kts 281°
2026-05-06 04:22 20.54549 71.63314 33892 ft 469 kts 281°
2026-05-06 04:23 20.56361 71.53095 33885 ft 469 kts 282°
2026-05-06 04:23 20.57571 71.46254 33892 ft 470 kts 282°
2026-05-06 04:24 20.58777 71.39418 33891 ft 470 kts 282°
2026-05-06 04:24 20.59988 71.32537 33891 ft 471 kts 282°
2026-05-06 04:25 20.61196 71.25655 33886 ft 471 kts 282°
2026-05-06 04:25 20.62400 71.18780 33887 ft 471 kts 282°
2026-05-06 04:26 20.63597 71.11932 33883 ft 472 kts 282°
2026-05-06 04:26 20.64797 71.05043 33885 ft 472 kts 282°
2026-05-06 04:27 20.65996 70.98147 33882 ft 472 kts 282°
2026-05-06 04:27 20.67192 70.91256 33888 ft 472 kts 282°
2026-05-06 04:28 20.68383 70.84371 33886 ft 472 kts 282°
2026-05-06 04:28 20.69572 70.77479 33884 ft 471 kts 282°
2026-05-06 04:29 20.70758 70.70592 33891 ft 471 kts 282°
2026-05-06 04:29 20.71942 70.63702 33894 ft 471 kts 282°
2026-05-06 04:30 20.73121 70.56819 33899 ft 471 kts 282°
2026-05-06 04:30 20.74300 70.49923 33900 ft 471 kts 282°
2026-05-06 04:31 20.75474 70.43036 33906 ft 471 kts 282°
2026-05-06 04:31 20.76646 70.36141 33902 ft 471 kts 282°
2026-05-06 04:32 20.77814 70.29254 33910 ft 471 kts 282°
2026-05-06 04:32 20.78983 70.22351 33903 ft 471 kts 282°
2026-05-06 04:33 20.80140 70.15494 33906 ft 472 kts 282°
2026-05-06 04:33 20.81300 70.08605 33910 ft 472 kts 281°
2026-05-06 04:34 20.82459 70.01703 33908 ft 472 kts 282°
2026-05-06 04:34 20.83616 69.94792 33908 ft 472 kts 281°
2026-05-06 04:35 20.84769 69.87893 33911 ft 472 kts 281°
2026-05-06 04:35 20.85922 69.80975 33913 ft 472 kts 281°
2026-05-06 04:36 20.87068 69.74081 33909 ft 472 kts 281°
2026-05-06 04:36 20.88217 69.67151 33907 ft 472 kts 281°
2026-05-06 04:37 20.89352 69.60287 33908 ft 472 kts 281°
2026-05-06 04:37 20.90492 69.53372 33908 ft 472 kts 281°
2026-05-06 04:38 20.91632 69.46446 33909 ft 472 kts 281°
2026-05-06 04:38 20.92765 69.39538 33908 ft 472 kts 281°
2026-05-06 04:39 20.93898 69.32614 33911 ft 472 kts 281°
2026-05-06 04:39 20.95030 69.25678 33908 ft 472 kts 281°
2026-05-06 04:40 20.96159 69.18747 33906 ft 473 kts 281°
2026-05-06 04:40 20.97461 69.11859 33914 ft 471 kts 287°
2026-05-06 04:41 20.99736 69.05301 33910 ft 470 kts 295°
2026-05-06 04:41 21.02439 68.98938 33910 ft 470 kts 295°
2026-05-06 04:42 21.05129 68.92598 33911 ft 470 kts 295°
2026-05-06 04:42 21.07811 68.86207 33911 ft 470 kts 295°
2026-05-06 04:43 21.10476 68.79815 33912 ft 470 kts 295°
2026-05-06 04:43 21.13138 68.73417 33911 ft 470 kts 295°
2026-05-06 04:44 21.15796 68.67022 33909 ft 470 kts 295°
2026-05-06 04:44 21.18435 68.60664 33912 ft 469 kts 295°
2026-05-06 04:45 21.21083 68.54279 33914 ft 469 kts 295°
2026-05-06 04:45 21.23734 68.47880 33914 ft 469 kts 294°
2026-05-06 04:46 21.26378 68.41489 33911 ft 469 kts 294°
2026-05-06 04:46 21.29025 68.35083 33915 ft 469 kts 294°
2026-05-06 04:47 21.31663 68.28688 33910 ft 469 kts 294°
2026-05-06 04:47 21.34302 68.22285 33908 ft 469 kts 294°
2026-05-06 04:48 21.36938 68.15881 33908 ft 469 kts 294°
2026-05-06 04:48 21.39142 68.10518 33909 ft 469 kts 294°
2026-05-06 04:49 21.41752 68.04162 33911 ft 469 kts 294°
2026-05-06 04:49 21.44381 67.97751 33913 ft 469 kts 294°
2026-05-06 04:50 21.47008 67.91336 33909 ft 469 kts 294°
2026-05-06 04:50 21.49631 67.84923 33909 ft 469 kts 294°
2026-05-06 04:51 21.52246 67.78522 33916 ft 468 kts 294°
2026-05-06 04:51 21.54862 67.72110 33910 ft 468 kts 294°
2026-05-06 04:52 21.57469 67.65710 33910 ft 468 kts 294°
2026-05-06 04:52 21.60077 67.59302 33910 ft 467 kts 294°
2026-05-06 04:53 21.62677 67.52904 33914 ft 467 kts 294°
2026-05-06 04:53 21.65259 67.46542 33910 ft 467 kts 294°
2026-05-06 04:54 21.67855 67.40136 33913 ft 467 kts 294°
2026-05-06 04:54 21.70447 67.33734 33915 ft 467 kts 294°
2026-05-06 04:55 21.73035 67.27331 33921 ft 467 kts 294°
2026-05-06 04:55 21.75623 67.20922 33919 ft 467 kts 294°
2026-05-06 04:56 21.78208 67.14510 33916 ft 467 kts 294°
2026-05-06 04:56 21.80791 67.08095 33919 ft 467 kts 294°
2026-05-06 04:57 21.83371 67.01680 33912 ft 467 kts 294°
2026-05-06 04:57 21.85943 66.95274 33919 ft 466 kts 294°
2026-05-06 04:58 21.88518 66.88855 33920 ft 466 kts 294°
2026-05-06 04:58 21.91086 66.82442 33918 ft 466 kts 294°
2026-05-06 04:59 21.93652 66.76027 33913 ft 466 kts 294°
2026-05-06 04:59 21.96211 66.69620 33913 ft 466 kts 294°
2026-05-06 05:00 21.98770 66.63206 33916 ft 466 kts 294°
2026-05-06 05:00 22.01306 66.56839 33921 ft 466 kts 293°
2026-05-06 05:01 22.03865 66.50408 33919 ft 466 kts 294°
2026-05-06 05:01 22.06414 66.43994 33916 ft 466 kts 293°
2026-05-06 05:02 22.08966 66.37563 33916 ft 466 kts 293°
2026-05-06 05:02 22.11507 66.31152 33918 ft 466 kts 293°
2026-05-06 05:03 22.14050 66.24723 33929 ft 466 kts 293°
2026-05-06 05:03 22.16591 66.18294 33922 ft 466 kts 293°
2026-05-06 05:04 22.19126 66.11869 33916 ft 466 kts 293°
2026-05-06 05:04 22.21647 66.05473 33920 ft 466 kts 293°
2026-05-06 05:05 22.24175 65.99049 33914 ft 465 kts 293°
2026-05-06 05:05 22.26704 65.92612 33916 ft 465 kts 293°
2026-05-06 05:06 22.29227 65.86184 33918 ft 465 kts 293°
2026-05-06 05:06 22.31750 65.79747 33918 ft 465 kts 293°
2026-05-06 05:07 22.34271 65.73305 33917 ft 465 kts 293°
2026-05-06 05:07 22.36787 65.66868 33916 ft 464 kts 293°
2026-05-06 05:08 22.39280 65.60481 33915 ft 464 kts 293°
2026-05-06 05:08 22.41808 65.53996 33914 ft 464 kts 293°
2026-05-06 05:09 22.44299 65.47598 33918 ft 464 kts 293°
2026-05-06 05:09 22.46801 65.41159 33920 ft 464 kts 293°
2026-05-06 05:10 22.49305 65.34710 33915 ft 464 kts 293°
2026-05-06 05:10 22.51803 65.28266 33914 ft 464 kts 293°
2026-05-06 05:11 22.54300 65.21814 33915 ft 464 kts 292°
2026-05-06 05:11 22.56774 65.15416 33916 ft 464 kts 292°
2026-05-06 05:12 22.59262 65.08970 33920 ft 464 kts 292°
2026-05-06 05:12 22.61750 65.02515 33918 ft 464 kts 292°
2026-05-06 05:13 22.64233 64.96065 33914 ft 464 kts 292°
2026-05-06 05:13 22.66711 64.89618 33914 ft 464 kts 292°
2026-05-06 05:14 22.69191 64.83158 33908 ft 464 kts 292°
2026-05-06 05:14 22.71672 64.76687 33910 ft 464 kts 292°
2026-05-06 05:15 22.74131 64.70262 33912 ft 465 kts 292°
2026-05-06 05:15 22.76602 64.63797 33911 ft 465 kts 292°
2026-05-06 05:16 22.79076 64.57315 33914 ft 465 kts 292°
2026-05-06 05:16 22.81547 64.50832 33913 ft 465 kts 292°
2026-05-06 05:17 22.84014 64.44350 33909 ft 465 kts 292°
2026-05-06 05:17 22.86484 64.37854 33912 ft 465 kts 292°
2026-05-06 05:18 22.88945 64.31368 33911 ft 465 kts 292°
2026-05-06 05:18 22.91403 64.24884 33907 ft 465 kts 292°
2026-05-06 05:19 22.93841 64.18439 33911 ft 464 kts 292°
2026-05-06 05:19 22.96292 64.11953 33909 ft 464 kts 292°
2026-05-06 05:20 22.98740 64.05467 33910 ft 464 kts 292°
2026-05-06 05:20 23.01186 63.98974 33912 ft 464 kts 291°
2026-05-06 05:21 23.03627 63.92482 33910 ft 464 kts 291°
2026-05-06 05:21 23.05350 63.85744 33914 ft 464 kts 280°
2026-05-06 05:22 23.05985 63.78774 33907 ft 465 kts 272°
2026-05-06 05:22 23.06044 63.71749 33911 ft 465 kts 271°
2026-05-06 05:23 23.06072 63.64730 33912 ft 466 kts 271°
2026-05-06 05:23 23.06160 63.54213 33911 ft 466 kts 271°
2026-05-06 05:24 23.06231 63.47172 33909 ft 466 kts 271°
2026-05-06 05:24 23.06301 63.40137 33910 ft 466 kts 271°
2026-05-06 05:25 23.06366 63.33103 33907 ft 466 kts 271°
2026-05-06 05:25 23.06428 63.26064 33909 ft 466 kts 271°
2026-05-06 05:26 23.06487 63.19040 33908 ft 465 kts 271°
2026-05-06 05:26 23.06542 63.12007 33907 ft 465 kts 271°
2026-05-06 05:27 23.06594 63.04966 33909 ft 465 kts 271°
2026-05-06 05:27 23.06643 62.97941 33909 ft 465 kts 271°
2026-05-06 05:28 23.06689 62.90906 33911 ft 465 kts 271°
2026-05-06 05:28 23.06732 62.83919 33907 ft 466 kts 271°
2026-05-06 05:29 23.06772 62.76891 33910 ft 466 kts 271°
2026-05-06 05:29 23.06809 62.69853 33910 ft 466 kts 271°
2026-05-06 05:30 23.06843 62.62813 33913 ft 466 kts 271°
2026-05-06 05:30 23.06858 62.59288 34015 ft 468 kts 271°
2026-05-06 05:30 23.06873 62.55756 34296 ft 467 kts 271°
2026-05-06 05:31 23.06887 62.52242 34658 ft 464 kts 271°
2026-05-06 05:31 23.06900 62.48737 34985 ft 462 kts 270°
2026-05-06 05:31 23.06913 62.45258 35273 ft 461 kts 270°
2026-05-06 05:31 23.06925 62.41772 35522 ft 461 kts 270°
2026-05-06 05:32 23.06936 62.38288 35773 ft 461 kts 270°
2026-05-06 05:32 23.06946 62.34839 35832 ft 463 kts 270°
2026-05-06 05:32 23.06964 62.27857 35907 ft 462 kts 270°
2026-05-06 05:33 23.06978 62.20902 35902 ft 460 kts 270°
2026-05-06 05:33 23.06990 62.13957 35905 ft 459 kts 270°
2026-05-06 05:34 23.06999 62.07021 35906 ft 459 kts 270°
2026-05-06 05:34 23.07005 62.00134 35908 ft 459 kts 270°
2026-05-06 05:35 23.07008 61.93198 35907 ft 459 kts 270°
2026-05-06 05:35 23.07008 61.86241 35910 ft 460 kts 270°
2026-05-06 05:36 23.07006 61.80409 35910 ft 461 kts 270°
2026-05-06 05:36 23.07000 61.73441 35907 ft 462 kts 270°
2026-05-06 05:37 23.06979 61.66520 35908 ft 462 kts 270°
2026-05-06 05:37 23.06949 61.59523 35907 ft 462 kts 270°
2026-05-06 05:38 23.06919 61.52537 35904 ft 462 kts 270°
2026-05-06 05:38 23.06601 61.45572 35898 ft 462 kts 263°
2026-05-06 05:39 23.05667 61.38657 35900 ft 462 kts 262°
2026-05-06 05:39 23.04718 61.31754 35902 ft 462 kts 262°
2026-05-06 05:40 23.03794 61.24850 35903 ft 462 kts 262°
2026-05-06 05:40 23.02880 61.17947 35899 ft 462 kts 262°
2026-05-06 05:41 23.01963 61.11049 35896 ft 462 kts 262°
2026-05-06 05:41 23.01041 61.04142 35896 ft 462 kts 262°
2026-05-06 05:42 23.00122 60.97279 35893 ft 462 kts 262°
2026-05-06 05:42 22.99196 60.90383 35889 ft 462 kts 262°
2026-05-06 05:43 22.98269 60.83474 35889 ft 462 kts 262°
2026-05-06 05:43 22.97341 60.76560 35888 ft 462 kts 262°
2026-05-06 05:44 22.96410 60.69653 35885 ft 462 kts 262°
2026-05-06 05:44 22.95477 60.62754 35885 ft 462 kts 262°
2026-05-06 05:45 22.94539 60.55841 35882 ft 462 kts 262°
2026-05-06 05:45 22.93598 60.48932 35880 ft 462 kts 262°
2026-05-06 05:46 22.92656 60.42033 35878 ft 463 kts 262°
2026-05-06 05:46 22.91725 60.35240 35879 ft 463 kts 262°
2026-05-06 05:47 22.90777 60.28336 35875 ft 463 kts 262°
2026-05-06 05:47 22.89880 60.21832 35870 ft 463 kts 262°
2026-05-06 05:48 22.88914 60.14928 35872 ft 463 kts 262°
2026-05-06 05:48 22.87944 60.08035 35871 ft 463 kts 262°
2026-05-06 05:49 22.86971 60.01136 35868 ft 463 kts 262°
2026-05-06 05:49 22.85997 59.94231 35865 ft 463 kts 262°
2026-05-06 05:50 22.85019 59.87330 35862 ft 463 kts 262°
2026-05-06 05:50 22.84058 59.80430 35858 ft 463 kts 262°
2026-05-06 05:51 22.83104 59.73525 35856 ft 463 kts 262°
2026-05-06 05:51 22.82152 59.66677 35852 ft 463 kts 262°
2026-05-06 05:52 22.81182 59.59732 35851 ft 463 kts 262°
2026-05-06 05:52 22.80222 59.52877 35858 ft 463 kts 262°
2026-05-06 05:53 22.79252 59.45977 35866 ft 463 kts 262°
2026-05-06 05:53 22.78281 59.39087 35873 ft 463 kts 262°
2026-05-06 05:54 22.77300 59.32190 35883 ft 462 kts 262°
2026-05-06 05:54 22.76312 59.25311 35897 ft 463 kts 262°
2026-05-06 05:55 22.75317 59.18409 35906 ft 463 kts 262°
2026-05-06 05:55 22.74323 59.11522 35907 ft 463 kts 262°
2026-05-06 05:56 22.73334 59.04681 35924 ft 462 kts 262°
2026-05-06 05:56 22.72337 58.97804 35925 ft 463 kts 262°
2026-05-06 05:57 22.71334 58.90913 35924 ft 463 kts 262°
2026-05-06 05:57 22.70328 58.84030 35932 ft 463 kts 262°
2026-05-06 05:58 22.69319 58.77136 35930 ft 463 kts 262°
2026-05-06 05:58 22.68310 58.70261 35939 ft 463 kts 261°
2026-05-06 05:59 22.67518 58.63349 35922 ft 462 kts 270°
2026-05-06 05:59 22.68039 58.56431 35931 ft 462 kts 280°
2026-05-06 06:00 22.69667 58.49738 35935 ft 462 kts 285°
2026-05-06 06:00 22.71488 58.43066 35937 ft 462 kts 285°
2026-05-06 06:01 22.73283 58.36369 35930 ft 463 kts 285°
2026-05-06 06:01 22.75041 58.29676 35947 ft 462 kts 285°
2026-05-06 06:02 22.76791 58.22958 35935 ft 462 kts 285°
2026-05-06 06:02 22.78538 58.16247 35939 ft 462 kts 285°
2026-05-06 06:03 22.80271 58.09580 35936 ft 462 kts 285°
2026-05-06 06:03 22.82009 58.02880 35936 ft 462 kts 285°
2026-05-06 06:04 22.83746 57.96175 35939 ft 462 kts 284°
2026-05-06 06:04 22.85480 57.89469 35943 ft 461 kts 284°
2026-05-06 06:05 22.87207 57.82775 35945 ft 461 kts 285°
2026-05-06 06:05 22.88927 57.76099 35948 ft 461 kts 284°
2026-05-06 06:06 22.90611 57.69372 35953 ft 461 kts 284°
2026-05-06 06:06 22.92263 57.62657 35962 ft 460 kts 284°
2026-05-06 06:07 22.93916 57.55946 35955 ft 460 kts 284°
2026-05-06 06:07 22.95561 57.49276 35972 ft 460 kts 284°
2026-05-06 06:08 22.97211 57.42571 35966 ft 460 kts 284°
2026-05-06 06:08 22.98861 57.35858 35974 ft 460 kts 284°
2026-05-06 06:09 23.00657 57.29181 35968 ft 461 kts 290°
2026-05-06 06:09 23.03086 57.22741 35967 ft 461 kts 291°
2026-05-06 06:10 23.05562 57.16307 35968 ft 462 kts 291°
2026-05-06 06:10 23.08017 57.09857 35956 ft 462 kts 291°
2026-05-06 06:11 23.10437 57.03439 35987 ft 462 kts 291°
2026-05-06 06:11 23.12872 56.96964 35958 ft 463 kts 290°
2026-05-06 06:12 23.15306 56.90486 35942 ft 463 kts 290°
2026-05-06 06:12 23.17735 56.84010 35930 ft 462 kts 290°
2026-05-06 06:13 23.20153 56.77555 35930 ft 461 kts 290°
2026-05-06 06:13 23.22565 56.71105 35923 ft 460 kts 290°
2026-05-06 06:14 23.23883 56.67579 35920 ft 460 kts 290°
2026-05-06 06:20 23.25830 56.62363 35915 ft 460 kts 290°
2026-05-06 06:21 23.28236 56.55907 35914 ft 460 kts 290°
2026-05-06 06:21 23.30623 56.49494 35784 ft 462 kts 290°
2026-05-06 06:22 23.31846 56.46201 34970 ft 473 kts 290°
2026-05-06 06:22 23.32680 56.43956 34506 ft 473 kts 290°
2026-05-06 06:22 23.34309 56.39569 33725 ft 469 kts 290°
2026-05-06 06:22 23.35528 56.36288 33122 ft 465 kts 290°
2026-05-06 06:23 23.36329 56.34127 32754 ft 461 kts 290°
2026-05-06 06:23 23.37525 56.30902 32203 ft 457 kts 290°
2026-05-06 06:23 23.38706 56.27712 31692 ft 454 kts 290°
2026-05-06 06:23 23.39883 56.24531 31173 ft 450 kts 290°
2026-05-06 06:24 23.41046 56.21383 30662 ft 448 kts 290°
2026-05-06 06:24 23.42206 56.18242 30142 ft 445 kts 290°
2026-05-06 06:24 23.43353 56.15136 29548 ft 443 kts 291°
2026-05-06 06:24 23.44503 56.12019 28994 ft 440 kts 291°
2026-05-06 06:25 23.45640 56.08934 28455 ft 436 kts 291°
2026-05-06 06:25 23.46765 56.05880 27946 ft 433 kts 291°
2026-05-06 06:25 23.48988 55.99837 26933 ft 426 kts 291°
2026-05-06 06:26 23.50086 55.96852 26425 ft 423 kts 291°
2026-05-06 06:26 23.51176 55.93884 25943 ft 421 kts 291°
2026-05-06 06:26 23.52260 55.90932 25445 ft 418 kts 291°
2026-05-06 06:26 23.53346 55.88000 24961 ft 416 kts 293°
2026-05-06 06:27 23.54665 55.85246 24480 ft 415 kts 301°
2026-05-06 06:27 23.56306 55.82652 24008 ft 414 kts 307°
2026-05-06 06:27 23.58169 55.80273 23508 ft 413 kts 314°
2026-05-06 06:27 23.60207 55.78070 22970 ft 411 kts 315°
2026-05-06 06:28 23.62251 55.75908 22475 ft 409 kts 316°
2026-05-06 06:28 23.64281 55.73762 21993 ft 406 kts 316°
2026-05-06 06:28 23.66301 55.71615 21522 ft 403 kts 316°
2026-05-06 06:28 23.68296 55.69480 21059 ft 401 kts 316°
2026-05-06 06:29 23.70276 55.67351 20612 ft 398 kts 316°
2026-05-06 06:29 23.72241 55.65234 20157 ft 396 kts 316°
2026-05-06 06:29 23.74198 55.63123 19709 ft 394 kts 316°
2026-05-06 06:29 23.76120 55.61048 19267 ft 392 kts 316°
2026-05-06 06:30 23.78061 55.58954 18809 ft 391 kts 316°
2026-05-06 06:30 23.79994 55.56868 18360 ft 390 kts 316°
2026-05-06 06:30 23.81856 55.54712 17852 ft 390 kts 310°
2026-05-06 06:30 23.83438 55.52312 17391 ft 389 kts 303°
2026-05-06 06:31 23.84758 55.49739 16931 ft 388 kts 296°
2026-05-06 06:31 23.85861 55.47063 16476 ft 385 kts 295°
2026-05-06 06:31 23.86941 55.44390 16026 ft 383 kts 295°
2026-05-06 06:31 23.88018 55.41738 15590 ft 381 kts 295°
2026-05-06 06:32 23.89088 55.39125 15370 ft 372 kts 295°
2026-05-06 06:32 23.90135 55.36580 15208 ft 362 kts 295°
2026-05-06 06:32 23.91159 55.34103 15048 ft 353 kts 295°